Location: Coupvray
(48.8929°N, 2.7967°E)
Time: 21:33:19
(UTC+00:00)

Cosmos 1241 Rocket - Pass Details

Date: 02 November 2020
Orbit: 929 x 1018 km, 65.8° (Epoch: 30 November)

Event Time Altitude Azimuth Distance (km) Brightness Sun altitude
Rises 21:24:01 0° 319° (NW) 3,731 8.2 -47.2°
Reaches altitude 10° 21:27:03 10° 331° (NNW) 2,791 7.4 -47.6°
Enters shadow 21:28:09 14° 338° (NNW) 2,489 7.0 -47.7°
